Vorticity
7 7 8 8 8 8 8 7 7 7 7 7 7 7 7 8 9 10 12 15 9 3 5 6 7 8 8 5 4 4 6 6 7 7 8 7 5 4 2 1 2 4 6 4 8 12 12 9 8 7 7 8 8 8 9 10 10 10 8 8 7 6 6 7 7 8 8 9 8 2 -9 -10 -7 -3 -1 0 1 2 4 6 7 7 6 5 2 0
7 7 8 9 9 9 8 8 7 7 7 6 6 6 5 6 7 8 7 11 12 12 14 9 8 8 7 6 5 6 7 7 7 7 8 9 8 6 3 4 6 11 17 6 9 15 16 14 14 12 10 9 8 8 10 12 12 11 11 13 11 9 8 8 8 8 8 9 9 6 -1 -3 -1 2 3 5 6 8 10 12 11 9 6 3 1 -1
8 8 8 9 9 9 9 8 7 7 7 7 6 6 5 5 6 6 2 2 6 12 17 11 9 9 8 8 8 8 8 9 9 9 10 10 10 9 9 11 9 6 5 11 12 11 12 14 15 14 12 11 9 8 10 12 12 11 13 15 13 11 12 11 9 8 8 8 8 8 7 6 6 7 8 9 11 14 16 17 15 12 7 4 1 -2
9 9 8 9 10 10 9 8 8 7 7 6 6 6 5 5 5 5 5 9 7 4 2 6 9 9 9 9 8 8 9 9 10 10 11 11 11 11 11 10 9 5 -6 3 4 3 3 6 8 10 10 10 9 9 11 11 11 11 13 11 10 10 15 12 10 9 8 7 7 8 8 7 7 8 9 12 15 18 22 24 22 17 10 6 2 -0
10 9 9 9 10 10 10 9 8 8 7 7 7 6 6 6 5 5 6 7 7 6 6 4 6 9 10 9 9 8 9 10 10 10 11 11 11 11 10 9 10 11 12 9 4 -0 -1 -0 0 1 5 6 7 8 10 9 8 8 9 7 8 10 13 10 9 8 8 7 6 6 6 6 6 7 8 11 15 18 21 25 25 20 12 8 4 1
12 10 8 8 8 9 9 9 8 8 7 7 7 7 7 7 7 7 7 6 6 7 9 6 6 7 9 8 6 5 7 9 9 9 9 10 10 11 11 11 12 13 14 13 11 7 5 3 0 -1 1 1 4 7 10 8 7 7 7 6 7 7 6 4 5 6 6 5 5 5 5 6 6 7 7 8 10 11 12 11 9 7 5 6 5 2
15 12 9 8 8 9 10 10 9 9 9 7 7 7 7 8 8 8 8 8 7 8 10 9 8 7 8 6 3 1 2 5 7 8 8 8 9 10 10 11 11 11 11 12 12 12 12 9 7 4 3 1 1 3 3 4 4 5 6 5 4 3 1 0 2 4 4 4 5 5 6 7 8 9 9 7 7 7 6 1 -4 -7 -5 1 4 4
19 17 14 12 11 10 11 11 10 10 11 11 9 7 6 6 7 8 10 9 8 8 7 8 8 8 8 8 8 7 6 5 6 6 7 7 8 9 9 10 10 9 9 10 10 11 12 11 11 10 8 5 2 0 -1 -1 1 3 5 4 2 1 1 2 3 4 6 6 7 7 7 8 10 12 11 8 7 6 6 1 -5 -9 -9 -3 1 3
24 25 24 21 17 13 11 11 10 10 10 13 13 11 8 7 8 10 10 9 8 6 6 7 7 7 7 8 11 13 12 8 6 5 5 6 7 7 8 8 9 9 8 8 9 9 10 11 11 11 9 8 7 5 1 -1 -1 0 2 3 3 3 3 3 4 5 7 9 9 8 8 9 12 14 13 8 5 4 3 1 -3 -7 -10 -11 -9 -6
28 28 29 28 25 20 15 12 10 9 9 11 12 13 14 11 10 9 8 8 7 6 6 6 6 6 6 6 7 9 10 8 7 5 4 4 5 6 6 7 7 7 7 8 8 8 9 10 11 11 12 12 12 10 6 4 2 1 -0 1 2 3 2 1 1 2 4 6 7 7 7 9 11 13 10 3 -1 -3 -2 -1 -2 -4 -9 -15 -18 -18
26 26 25 26 26 24 21 17 14 10 8 13 16 16 15 13 11 10 9 10 10 9 8 7 7 7 7 7 7 7 6 6 6 5 4 4 4 4 5 5 5 6 6 7 7 8 8 9 10 11 11 12 13 12 12 10 8 6 4 4 4 4 2 1 -0 -0 1 3 3 4 4 6 8 9 6 -1 -6 -6 -4 -0 1 -1 -7 -13 -18 -20
17 18 19 20 21 23 24 22 20 17 14 8 8 11 11 10 9 10 11 13 13 12 10 9 8 8 8 9 9 9 8 7 7 6 5 4 4 4 4 4 4 4 5 5 6 7 8 8 9 10 10 11 11 12 12 12 12 11 10 9 8 8 8 7 6 5 4 4 3 2 1 1 2 4 3 -2 -5 -6 -3 1 1 -2 -8 -12 -13 -13
6 6 12 16 19 21 23 24 24 22 19 15 12 10 9 8 8 9 10 12 12 12 12 11 10 10 9 9 10 10 10 10 10 9 7 6 5 4 4 4 4 4 4 4 5 6 6 7 8 8 9 9 10 11 11 12 12 12 11 10 10 9 10 10 10 10 10 10 9 6 3 1 -0 -1 -0 -2 -4 -6 -6 -4 -5 -6 -9 -8 -6 -4
-3 -5 2 10 15 19 22 25 25 25 24 23 20 16 15 15 15 16 16 14 12 11 11 12 12 12 11 10 8 7 8 9 10 11 10 8 7 6 5 6 5 5 4 4 4 4 5 6 6 7 7 7 8 9 10 11 11 11 11 11 10 10 9 9 9 10 12 13 12 11 9 6 4 2 2 1 -1 -3 -4 -4 -4 -3 -2 0 3 5
-3 -6 -3 2 6 11 17 22 24 24 20 18 21 27 30 27 25 22 22 20 18 16 15 14 13 12 11 10 7 6 5 7 8 9 10 10 9 7 7 8 7 7 6 5 4 4 4 5 5 6 6 6 7 8 8 9 10 10 11 11 11 11 11 10 9 9 10 10 10 10 9 8 6 5 5 6 6 6 5 5 5 6 7 8 9 10
5 -0 -0 -0 -2 -1 4 12 18 19 16 16 18 19 18 18 17 16 16 17 18 20 20 17 14 11 10 9 8 7 6 6 6 7 8 9 9 8 7 8 9 9 8 8 7 6 6 5 5 6 6 6 6 6 7 7 8 9 10 11 12 12 13 12 12 11 10 7 4 2 1 1 1 2 4 7 9 10 10 11 11 11 11 10 10 10
15 11 9 6 2 -2 -2 3 9 14 16 14 8 4 6 8 11 13 14 15 16 16 17 16 14 12 11 11 11 9 6 7 7 7 7 8 8 7 7 8 9 10 10 10 10 9 8 7 6 6 6 6 6 6 6 6 7 8 9 10 11 12 13 14 14 14 13 9 5 0 -3 -4 -2 0 4 8 10 11 12 11 11 11 10 10 10 10
35 27 22 19 15 12 8 6 6 8 12 14 11 7 2 -0 2 7 15 16 15 14 14 15 16 15 15 15 14 12 9 9 10 9 9 9 9 8 7 8 9 10 11 12 11 10 9 9 8 7 7 7 6 6 6 6 7 7 8 9 10 11 12 13 14 15 15 14 12 10 7 6 7 9 11 12 12 12 12 12 11 11 10 10 10 9
36 32 28 28 27 26 23 19 17 13 8 -2 -5 -4 -1 2 7 12 17 16 13 12 12 14 16 17 17 18 17 17 15 14 13 12 12 12 12 11 10 10 10 11 12 12 11 11 10 10 10 9 8 8 8 7 7 7 7 7 7 8 8 9 10 11 12 13 14 14 14 14 14 14 14 14 14 13 13 12 12 11 11 10 10 9 9 8
24 25 27 30 32 33 34 32 29 27 25 20 17 14 14 13 12 13 13 12 12 13 14 15 16 17 17 18 18 18 17 16 15 15 14 15 15 15 13 12 12 12 12 12 12 12 12 11 11 10 10 9 9 9 9 8 8 8 8 8 8 8 8 9 9 9 9 10 10 11 12 12 12 12 12 12 11 11 11 11 10 9 9 8 7 7
11 18 26 31 34 36 37 39 38 35 30 27 24 21 19 18 15 12 8 8 11 14 16 16 16 16 16 17 17 16 14 14 14 14 15 17 17 17 15 15 14 14 14 14 14 13 13 13 12 11 11 10 10 10 9 9 9 9 8 8 8 8 8 8 7 7 7 7 8 9 9 9 9 9 8 8 8 8 8 8 7 7 6 6 5 5
-2 5 16 23 27 31 33 35 35 36 36 32 28 25 21 20 18 14 8 8 11 13 14 15 16 16 17 17 17 16 16 17 16 14 15 17 17 16 14 15 15 15 14 14 14 14 14 14 13 12 12 12 11 11 10 10 10 10 9 9 9 9 8 8 8 8 8 8 8 9 9 9 8 8 7 6 5 5 4 4 4 4 4 4 4 5
-5 -1 3 8 14 20 26 24 26 30 39 40 42 42 40 34 29 24 20 18 17 17 17 18 19 20 20 19 19 19 19 19 18 17 16 16 15 15 15 16 15 15 14 14 14 15 15 14 13 13 13 13 12 12 12 12 11 11 10 10 10 10 10 10 10 10 10 10 10 10 10 10 9 9 8 7 6 5 4 4 4 4 4 5 5 6
0 2 1 -1 -0 5 14 19 18 15 15 26 37 46 50 49 45 40 38 34 30 28 26 24 23 21 19 18 18 18 18 19 19 18 17 16 16 16 16 16 16 15 14 14 14 15 15 14 14 14 14 14 13 13 13 13 12 12 12 11 11 11 11 11 12 12 12 12 12 12 12 11 11 10 10 9 8 8 7 7 7 7 7 7 7 7
10 9 6 -1 -6 -6 1 13 16 10 -3 -1 9 21 31 36 39 42 43 41 40 37 34 30 27 23 20 20 19 18 18 18 18 17 17 18 18 17 17 16 16 16 16 15 15 15 15 15 14 14 14 14 13 13 13 13 13 13 12 12 12 12 12 12 12 12 12 12 12 12 12 12 11 11 11 10 10 10 9 9 9 8 8 8 8 8
14 14 13 7 -0 -5 -4 6 14 14 1 -11 -13 -10 -5 -2 9 22 29 32 34 36 37 36 35 33 31 29 27 24 20 19 19 18 17 18 18 17 16 16 17 17 16 16 16 16 15 15 15 15 15 14 13 13 13 13 13 13 13 13 12 12 12 11 11 11 11 10 11 11 11 11 11 11 11 10 10 10 9 9 9 8 8 8 7 7
13 14 14 13 9 6 3 6 11 15 12 -3 -13 -18 -20 -17 -11 -4 4 10 17 23 27 31 35 39 39 38 36 32 26 24 22 21 20 20 19 16 14 15 17 17 16 15 14 15 15 15 15 15 15 14 14 13 13 13 13 13 12 12 12 12 11 11 10 10 9 9 9 9 9 9 9 9 9 8 8 8 8 8 7 7 7 7 7 6
11 11 12 13 14 15 14 13 13 14 15 9 3 -3 -7 -12 -14 -14 -11 -7 -2 3 7 11 15 20 25 27 29 29 28 25 22 19 17 20 19 16 13 14 15 16 14 13 12 13 15 14 13 13 14 14 14 13 13 13 13 12 12 12 12 11 11 10 10 9 9 8 8 8 7 7 7 7 6 6 6 6 6 6 6 6 6 6 6 7
11 11 11 13 15 18 19 19 17 14 12 10 9 7 6 3 -2 -6 -9 -10 -10 -8 -6 -5 -4 -2 2 6 10 12 14 14 14 12 12 14 15 14 12 13 13 13 12 12 12 12 12 11 11 11 12 12 12 12 12 12 12 12 12 12 11 11 10 10 10 9 9 9 9 8 8 8 7 7 7 7 7 7 7 7 7 7 7 7 8 8
12 11 11 13 14 16 17 17 16 13 10 8 7 7 8 8 6 4 1 -2 -4 -5 -6 -7 -8 -8 -6 -3 -0 2 2 3 4 5 7 10 10 10 10 10 10 10 10 11 10 10 10 9 9 10 10 10 10 11 11 11 12 12 12 12 11 11 10 10 10 10 10 10 10 10 10 10 10 9 9 9 9 9 9 9 9 9 9 10 10 10
13 12 13 13 13 13 13 13 13 11 9 7 6 6 6 8 8 8 7 6 4 1 -1 -3 -4 -4 -4 -2 -0 2 2 2 2 3 4 6 6 6 6 8 8 8 8 9 8 8 8 8 9 9 9 10 10 10 10 10 11 11 11 11 11 11 10 10 11 11 11 11 11 11 11 11 11 11 12 12 12 11 11 11 11 11 11 11 12 12
14 14 15 14 14 13 12 12 12 11 10 8 6 6 6 7 9 9 9 9 8 6 5 3 2 2 1 1 2 3 5 5 5 5 4 5 6 6 6 7 8 8 8 8 8 8 8 8 8 8 9 10 10 10 11 11 12 12 13 13 12 11 10 10 11 11 11 12 12 12 12 12 12 12 12 12 12 12 12 12 12 12 12 12 12 13
16 16 16 16 15 14 13 12 11 10 9 8 7 7 7 8 9 9 10 9 9 8 8 7 6 6 5 5 4 5 5 6 7 7 6 7 7 7 7 8 8 8 8 9 9 9 8 8 8 8 9 9 10 10 12 13 15 16 18 16 14 11 10 10 10 11 11 12 12 13 13 13 13 13 13 12 12 12 12 12 12 12 12 13 13 14
19 19 19 17 15 14 12 10 10 9 8 8 8 8 8 9 9 10 10 10 9 9 8 8 8 8 7 7 6 6 6 6 7 7 7 8 7 7 7 8 9 9 9 10 11 11 10 10 10 10 10 10 10 10 10 12 15 17 19 17 14 12 10 9 10 10 11 11 12 12 12 12 12 12 12 12 12 12 12 12 12 13 13 14 15 15
22 22 20 18 15 12 10 10 9 9 9 9 10 10 10 10 10 11 11 11 10 10 9 8 8 8 8 8 8 7 7 7 7 7 7 7 6 6 6 6 7 7 8 10 11 12 13 13 13 13 14 14 13 12 11 11 11 12 12 11 11 11 11 10 10 11 10 10 10 11 11 11 11 11 11 11 12 12 12 13 14 15 16 17 17 18
22 22 20 17 14 12 10 10 11 11 11 12 12 13 13 12 12 12 12 12 12 11 10 9 8 8 8 8 9 9 8 9 8 8 7 6 6 6 5 4 4 5 6 7 8 10 12 14 16 17 17 18 18 17 16 15 12 9 7 9 11 13 14 14 13 13 12 11 10 10 10 10 11 11 11 12 12 13 14 16 17 18 19 20 20 20
18 17 17 15 13 12 11 11 12 12 13 13 14 15 15 15 14 14 13 13 13 13 13 12 11 10 9 9 8 8 9 10 10 10 9 8 8 7 6 5 4 4 4 4 5 6 8 10 11 13 14 15 16 17 16 14 11 7 4 7 10 14 15 15 14 14 13 13 12 12 12 12 13 13 14 15 16 17 19 21 22 23 23 22 22 21
12 11 11 11 11 11 10 10 10 11 11 13 14 15 16 16 15 14 14 14 14 15 15 15 15 14 13 12 11 11 11 11 11 11 11 11 10 10 9 8 7 5 5 4 3 2 3 3 4 4 5 6 7 9 10 7 4 0 -2 0 4 8 11 11 12 12 12 13 14 15 15 16 17 18 19 20 21 23 24 25 26 25 24 23 22 20
12 10 8 7 7 7 7 7 7 7 8 10 11 13 14 14 14 14 14 15 16 16 17 17 18 17 17 16 15 14 13 13 12 12 12 12 12 12 12 11 10 8 7 5 3 1 -0 -1 -2 -2 -1 -2 -2 -1 1 0 -1 -2 -4 -2 1 5 7 8 9 9 11 12 14 16 18 19 20 21 22 23 24 24 25 25 24 23 22 20 19 18
14 13 11 8 6 5 4 4 4 5 6 8 9 10 10 11 12 12 13 14 15 15 16 16 17 17 16 16 16 15 14 13 13 12 11 12 12 12 13 14 13 13 12 9 6 3 -0 -2 -3 -4 -4 -3 -3 -2 -2 -3 -2 -2 -0 3 5 7 8 9 9 10 11 13 15 16 17 18 19 20 20 20 20 20 20 20 19 18 16 16 15 14
14 15 15 13 11 10 8 7 7 7 7 8 8 9 9 9 10 10 10 9 8 8 9 10 10 10 10 11 11 12 12 12 12 11 11 11 11 11 12 13 14 15 16 15 12 9 5 3 2 0 -1 -2 -2 -2 -2 -1 0 1 3 5 8 10 11 11 11 12 13 15 15 15 15 14 14 15 15 14 14 14 14 14 13 13 12 11 11 11
13 14 15 16 15 14 13 12 11 11 11 10 10 10 10 10 10 10 8 5 4 3 4 5 6 6 5 5 5 6 8 9 9 9 10 10 10 10 11 11 12 14 15 16 15 14 12 10 8 6 5 4 4 3 3 3 4 5 6 8 11 12 13 13 14 14 14 14 14 12 11 11 10 10 11 10 9 9 9 9 10 10 9 9 9 9
11 12 14 14 14 14 14 13 13 13 13 12 12 12 12 12 12 11 8 4 3 4 4 5 5 6 6 5 3 2 3 5 6 7 8 8 9 9 10 10 10 11 12 12 13 13 14 13 12 11 11 10 9 9 10 10 10 10 11 12 14 14 15 15 15 14 14 13 12 12 11 10 10 10 10 9 8 7 6 7 7 7 7 8 8 8
12 12 12 12 12 13 12 11 11 12 12 12 12 12 12 13 13 11 9 6 4 4 4 4 4 4 4 4 4 3 2 3 4 5 6 7 8 9 10 10 10 11 11 11 12 13 13 13 13 14 15 15 15 15 15 15 14 14 14 15 15 15 15 16 15 14 14 13 14 14 15 14 14 13 11 9 7 6 5 5 5 6 6 7 8 8
13 13 12 12 11 11 10 10 10 11 11 11 11 12 12 12 12 11 10 8 7 6 5 5 5 4 3 3 4 4 4 4 5 6 6 7 8 10 11 11 12 12 13 13 13 14 15 16 17 18 18 18 18 18 18 17 16 15 15 15 14 14 14 14 14 15 15 16 17 18 19 18 16 14 12 9 7 6 5 5 5 6 6 7 7 8
14 14 14 13 12 11 10 11 11 11 11 11 11 11 11 11 11 10 10 10 10 9 8 8 7 6 6 6 6 6 6 6 6 7 7 8 9 10 12 12 13 13 14 15 16 16 17 18 19 20 20 20 19 18 17 16 15 14 14 14 14 15 15 15 16 16 17 18 19 20 19 17 15 12 10 8 6 5 5 5 5 6 6 7 7 8
13 14 15 15 14 13 12 12 12 12 12 12 12 12 12 12 12 12 11 11 11 12 12 10 9 8 9 10 9 9 8 8 7 7 7 8 9 10 12 12 13 13 14 15 16 16 17 18 18 18 19 18 18 16 15 14 14 14 15 15 16 16 17 17 18 18 18 18 18 17 15 13 11 9 7 6 5 5 5 6 6 6 7 7 8 8
9 11 13 14 14 14 14 13 13 13 13 13 13 14 14 14 14 14 14 14 14 14 14 13 12 11 11 11 10 10 10 9 9 8 8 8 8 9 10 11 11 12 13 13 14 14 14 15 15 15 15 15 14 14 14 15 15 16 17 18 18 18 18 18 18 17 17 16 14 12 11 9 8 7 6 5 5 6 6 6 7 7 7 8 8 9
5 6 8 10 11 12 12 13 12 12 12 12 12 12 13 13 13 14 14 14 14 14 14 13 13 12 12 11 11 10 9 9 9 9 8 8 8 8 9 9 9 10 10 11 11 11 11 12 11 11 11 11 12 13 14 16 17 18 19 20 20 19 18 17 16 15 14 12 11 10 8 7 6 6 6 6 6 7 7 8 8 8 8 9 10 10
1 2 3 4 6 7 8 9 9 10 9 9 9 9 9 9 10 10 11 12 12 13 13 13 12 12 12 12 11 10 9 9 9 9 8 8 7 7 7 7 8 8 9 9 10 10 10 10 10 10 10 10 11 12 15 16 18 18 19 18 18 17 16 15 14 13 12 10 9 8 7 7 7 7 7 8 8 9 9 10 10 10 10 11 11 11
0 -0 -0 -0 1 2 3 4 5 5 5 5 5 5 5 5 5 5 6 7 9 10 10 11 11 11 11 11 10 10 9 8 8 8 8 7 6 6 6 6 6 7 8 8 9 10 10 11 12 12 11 11 11 12 14 15 16 16 15 14 14 14 13 13 12 11 10 9 9 8 8 8 9 9 10 10 11 12 12 12 13 13 13 13 12 12
Height
5566 5569 5571 5572 5574 5577 5580 5583 5586 5590 5593 5596 5599 5602 5605 5608 5611 5612 5614 5616 5619 5621 5624 5626 5629 5631 5634 5637 5641 5643 5645 5647 5650 5652 5654 5657 5659 5662 5664 5666 5669 5672 5674 5676 5678 5680 5681 5684 5686 5687 5689 5689 5690 5692 5694 5695 5696 5698 5700 5701 5703 5705 5707 5709 5711 5713 5715 5717 5719 5721 5723 5725 5726 5727 5729 5731 5733 5735 5736 5738 5739 5740 5741 5742 5743 5744
5559 5562 5565 5566 5568 5571 5575 5578 5582 5585 5588 5591 5594 5597 5600 5603 5606 5607 5609 5612 5614 5616 5618 5621 5623 5626 5629 5631 5634 5637 5640 5641 5644 5646 5649 5652 5655 5657 5659 5662 5665 5667 5669 5672 5675 5676 5678 5680 5682 5683 5684 5686 5686 5688 5689 5691 5692 5694 5695 5697 5699 5701 5703 5705 5707 5709 5711 5712 5714 5716 5718 5720 5721 5723 5725 5727 5729 5731 5732 5733 5735 5736 5737 5738 5739 5740
5552 5556 5559 5561 5562 5566 5570 5573 5577 5580 5583 5586 5590 5592 5595 5598 5601 5602 5604 5606 5608 5611 5613 5616 5618 5621 5624 5626 5629 5631 5634 5636 5639 5642 5645 5647 5650 5652 5655 5657 5660 5663 5665 5668 5670 5672 5674 5676 5677 5678 5680 5681 5682 5685 5686 5687 5688 5690 5691 5692 5694 5696 5698 5700 5702 5704 5706 5708 5710 5712 5714 5716 5717 5719 5721 5723 5724 5726 5727 5728 5730 5731 5733 5734 5735 5736
5545 5549 5552 5554 5557 5561 5564 5568 5572 5575 5579 5582 5585 5588 5591 5593 5595 5597 5599 5601 5603 5606 5608 5611 5614 5616 5619 5622 5624 5627 5629 5631 5634 5637 5640 5643 5645 5647 5650 5653 5655 5658 5661 5664 5666 5668 5670 5671 5673 5675 5676 5677 5679 5681 5682 5683 5684 5686 5687 5689 5690 5692 5694 5696 5698 5700 5701 5704 5706 5707 5709 5711 5713 5716 5717 5719 5721 5722 5723 5724 5725 5727 5729 5729 5730 5731
5538 5542 5545 5548 5552 5555 5558 5562 5566 5571 5574 5577 5580 5583 5586 5588 5590 5591 5594 5596 5598 5601 5603 5606 5609 5611 5614 5617 5620 5622 5625 5627 5630 5633 5636 5638 5641 5643 5646 5648 5651 5653 5656 5659 5662 5665 5666 5668 5670 5671 5671 5673 5674 5676 5677 5679 5680 5682 5684 5685 5687 5688 5690 5691 5693 5695 5697 5699 5701 5703 5705 5707 5709 5711 5713 5715 5717 5719 5720 5720 5721 5722 5724 5725 5726 5727
5531 5535 5538 5542 5546 5549 5551 5556 5561 5565 5569 5573 5576 5578 5580 5582 5584 5586 5589 5592 5593 5595 5599 5601 5604 5606 5609 5612 5615 5617 5620 5622 5625 5628 5631 5633 5636 5638 5641 5643 5646 5649 5651 5654 5656 5659 5661 5664 5666 5667 5669 5670 5671 5672 5674 5675 5676 5678 5680 5681 5683 5685 5686 5688 5690 5691 5693 5695 5697 5699 5701 5703 5705 5707 5709 5711 5713 5715 5716 5717 5718 5719 5720 5721 5722 5723
5525 5528 5532 5537 5540 5543 5546 5551 5556 5561 5565 5568 5571 5573 5575 5577 5579 5582 5585 5586 5587 5590 5593 5596 5599 5602 5604 5606 5609 5612 5615 5617 5620 5623 5626 5629 5631 5634 5636 5639 5641 5644 5646 5649 5651 5654 5656 5658 5661 5663 5665 5666 5667 5668 5670 5671 5672 5674 5676 5677 5679 5681 5683 5684 5686 5688 5689 5691 5693 5695 5697 5699 5701 5703 5705 5707 5709 5711 5712 5713 5714 5715 5716 5717 5718 5720
5519 5522 5526 5531 5534 5537 5541 5546 5551 5557 5561 5563 5565 5567 5570 5571 5574 5577 5579 5579 5581 5585 5589 5592 5594 5597 5599 5601 5604 5607 5610 5613 5616 5619 5621 5624 5627 5629 5632 5634 5636 5639 5642 5644 5646 5649 5651 5653 5656 5658 5660 5661 5663 5664 5666 5668 5669 5670 5671 5673 5675 5677 5679 5681 5682 5684 5686 5688 5689 5691 5693 5695 5697 5699 5701 5703 5704 5706 5708 5709 5710 5711 5713 5713 5714 5716
5513 5517 5520 5524 5527 5531 5536 5541 5546 5553 5557 5558 5559 5561 5563 5565 5569 5571 5572 5572 5576 5580 5584 5586 5589 5592 5594 5596 5599 5602 5605 5608 5611 5614 5617 5620 5622 5625 5627 5629 5632 5634 5637 5639 5641 5643 5646 5648 5650 5652 5654 5656 5658 5660 5662 5664 5666 5667 5668 5670 5672 5674 5675 5677 5679 5681 5682 5684 5686 5687 5689 5691 5693 5695 5697 5699 5700 5701 5703 5704 5706 5707 5708 5709 5710 5711
5509 5512 5515 5517 5521 5525 5530 5535 5541 5546 5550 5552 5555 5556 5556 5559 5562 5564 5565 5568 5571 5575 5579 5581 5584 5586 5589 5592 5595 5598 5601 5603 5606 5609 5612 5615 5618 5620 5622 5625 5627 5629 5631 5634 5636 5638 5640 5642 5645 5647 5649 5651 5653 5655 5657 5659 5661 5663 5664 5666 5668 5669 5671 5673 5675 5676 5678 5680 5682 5683 5685 5687 5689 5691 5692 5694 5695 5696 5697 5699 5701 5702 5703 5704 5705 5706
5504 5507 5509 5511 5514 5519 5525 5530 5534 5538 5542 5547 5550 5551 5552 5554 5556 5557 5560 5563 5566 5570 5574 5577 5579 5581 5585 5588 5591 5594 5596 5599 5601 5605 5607 5610 5613 5615 5617 5620 5622 5624 5626 5628 5631 5633 5635 5637 5640 5641 5644 5646 5648 5650 5652 5654 5656 5658 5660 5661 5663 5665 5666 5668 5670 5672 5674 5676 5678 5679 5681 5683 5684 5686 5688 5689 5690 5691 5692 5694 5695 5696 5698 5699 5700 5701
5499 5501 5503 5506 5509 5514 5519 5525 5530 5534 5538 5542 5544 5545 5546 5548 5549 5551 5555 5558 5561 5565 5569 5572 5574 5577 5580 5584 5586 5589 5592 5594 5597 5599 5602 5605 5608 5610 5612 5615 5617 5619 5621 5623 5626 5627 5630 5632 5634 5636 5638 5640 5642 5645 5647 5649 5651 5653 5655 5657 5659 5660 5662 5664 5666 5668 5670 5672 5674 5675 5677 5678 5680 5681 5683 5684 5685 5686 5687 5689 5690 5692 5693 5695 5696 5697
5494 5496 5498 5501 5505 5509 5514 5519 5525 5530 5534 5536 5537 5537 5538 5540 5542 5546 5550 5552 5555 5559 5563 5566 5570 5573 5576 5579 5582 5585 5587 5590 5592 5594 5597 5600 5603 5605 5607 5610 5611 5614 5616 5618 5621 5623 5625 5626 5628 5631 5633 5635 5637 5640 5642 5644 5646 5648 5650 5652 5654 5656 5658 5660 5661 5663 5665 5667 5669 5671 5672 5674 5675 5676 5678 5679 5681 5682 5683 5684 5686 5687 5689 5691 5692 5693
5489 5490 5493 5498 5502 5506 5510 5514 5519 5523 5527 5529 5531 5531 5532 5534 5538 5542 5545 5547 5550 5554 5558 5562 5566 5569 5571 5574 5577 5579 5582 5585 5587 5589 5592 5595 5597 5600 5602 5604 5606 5608 5611 5613 5616 5617 5619 5621 5623 5626 5627 5630 5632 5635 5637 5639 5641 5643 5645 5647 5649 5651 5653 5655 5657 5659 5661 5662 5664 5666 5667 5668 5670 5671 5673 5674 5676 5677 5679 5680 5682 5683 5685 5686 5687 5688
5483 5485 5489 5494 5498 5502 5506 5510 5514 5517 5521 5525 5527 5528 5530 5532 5535 5538 5540 5541 5544 5548 5553 5557 5560 5563 5565 5568 5571 5574 5577 5580 5582 5585 5588 5590 5591 5594 5597 5599 5601 5603 5606 5608 5611 5612 5613 5616 5618 5620 5622 5625 5627 5630 5632 5634 5636 5638 5640 5642 5644 5646 5648 5650 5652 5654 5656 5658 5659 5661 5661 5663 5664 5666 5667 5669 5671 5672 5674 5676 5677 5678 5680 5681 5682 5683
5477 5481 5486 5490 5494 5498 5502 5506 5510 5514 5518 5521 5524 5525 5526 5527 5529 5531 5533 5536 5540 5544 5549 5552 5555 5557 5560 5562 5566 5569 5572 5575 5578 5580 5583 5584 5586 5588 5592 5594 5596 5598 5601 5603 5605 5606 5607 5611 5613 5615 5616 5619 5621 5624 5626 5629 5631 5633 5635 5637 5639 5641 5643 5645 5647 5649 5651 5652 5654 5655 5656 5657 5659 5660 5662 5664 5666 5667 5669 5670 5672 5673 5675 5676 5677 5679
5476 5480 5484 5486 5490 5495 5499 5504 5507 5510 5514 5516 5518 5519 5520 5521 5523 5526 5529 5533 5536 5540 5544 5547 5549 5551 5554 5558 5561 5565 5568 5571 5573 5575 5577 5579 5581 5583 5586 5589 5591 5593 5595 5597 5598 5600 5601 5605 5607 5609 5611 5614 5616 5618 5621 5623 5626 5627 5630 5632 5634 5636 5638 5640 5641 5643 5645 5646 5648 5650 5651 5652 5654 5655 5657 5659 5660 5662 5664 5665 5667 5668 5670 5671 5672 5674
5473 5476 5480 5483 5486 5491 5495 5499 5503 5506 5508 5511 5514 5516 5517 5518 5519 5522 5526 5530 5533 5536 5539 5541 5544 5546 5550 5553 5557 5560 5563 5566 5568 5569 5572 5574 5576 5577 5581 5585 5586 5587 5589 5591 5592 5594 5596 5599 5601 5604 5606 5609 5611 5614 5616 5618 5621 5623 5625 5627 5629 5631 5633 5634 5636 5638 5640 5641 5643 5644 5645 5647 5649 5650 5652 5654 5655 5657 5659 5660 5662 5663 5665 5666 5667 5669
5468 5471 5474 5478 5482 5486 5490 5494 5497 5501 5505 5508 5510 5512 5514 5515 5517 5520 5523 5525 5528 5531 5533 5536 5539 5542 5546 5550 5552 5555 5558 5561 5563 5564 5566 5569 5571 5572 5576 5580 5581 5581 5583 5585 5586 5588 5591 5594 5597 5599 5601 5604 5606 5609 5611 5613 5616 5618 5620 5622 5624 5626 5627 5629 5631 5633 5634 5636 5637 5639 5640 5642 5644 5645 5647 5649 5651 5652 5654 5656 5657 5658 5660 5661 5662 5664
5464 5468 5472 5476 5480 5484 5486 5489 5493 5496 5501 5503 5505 5507 5510 5512 5514 5516 5519 5520 5522 5526 5529 5531 5534 5537 5541 5545 5547 5549 5552 5556 5558 5559 5561 5563 5565 5567 5571 5575 5576 5576 5577 5579 5581 5583 5586 5590 5592 5594 5597 5599 5602 5604 5606 5609 5611 5613 5615 5617 5619 5621 5622 5624 5626 5628 5629 5631 5632 5633 5635 5637 5639 5640 5642 5644 5646 5647 5649 5651 5652 5654 5655 5656 5658 5659
5461 5465 5468 5472 5477 5481 5483 5485 5488 5492 5495 5498 5501 5503 5506 5510 5512 5514 5515 5516 5518 5521 5524 5527 5530 5533 5536 5540 5542 5544 5546 5551 5553 5554 5556 5558 5560 5563 5566 5569 5570 5571 5572 5574 5576 5579 5582 5586 5588 5590 5592 5595 5597 5600 5602 5604 5606 5608 5610 5612 5614 5616 5617 5619 5621 5622 5624 5625 5627 5628 5630 5632 5634 5636 5637 5639 5641 5643 5644 5646 5647 5649 5650 5651 5653 5654
5456 5461 5464 5468 5473 5477 5481 5483 5486 5489 5491 5494 5497 5499 5502 5506 5509 5510 5511 5513 5515 5517 5519 5522 5525 5529 5533 5536 5538 5539 5541 5546 5548 5549 5550 5553 5556 5558 5560 5562 5564 5566 5567 5569 5571 5574 5578 5581 5583 5585 5587 5590 5593 5595 5597 5599 5601 5603 5605 5607 5609 5611 5612 5614 5616 5617 5619 5620 5621 5623 5625 5626 5628 5630 5632 5634 5636 5638 5639 5641 5642 5644 5645 5646 5648 5649
5453 5457 5461 5465 5469 5472 5476 5480 5484 5487 5490 5492 5493 5495 5497 5500 5503 5506 5507 5509 5511 5513 5515 5518 5522 5526 5529 5532 5533 5535 5537 5541 5543 5544 5545 5549 5551 5553 5554 5557 5559 5561 5562 5564 5566 5570 5574 5576 5578 5580 5583 5586 5588 5590 5592 5594 5596 5598 5600 5602 5604 5606 5607 5609 5611 5612 5613 5615 5616 5618 5620 5621 5623 5625 5627 5629 5631 5633 5634 5636 5637 5638 5640 5641 5643 5645
5450 5454 5458 5462 5465 5469 5472 5476 5480 5484 5488 5490 5491 5492 5494 5496 5498 5501 5504 5506 5507 5509 5512 5516 5520 5523 5525 5527 5528 5530 5533 5535 5537 5539 5541 5544 5546 5547 5548 5552 5555 5557 5558 5559 5562 5566 5569 5571 5573 5575 5578 5581 5584 5586 5587 5589 5591 5593 5595 5597 5599 5601 5602 5604 5606 5607 5608 5610 5611 5612 5614 5616 5618 5620 5622 5624 5626 5627 5629 5631 5632 5633 5635 5637 5638 5640
5446 5450 5454 5458 5462 5466 5469 5473 5476 5480 5483 5486 5489 5491 5493 5495 5496 5498 5500 5502 5505 5508 5511 5513 5516 5518 5519 5521 5523 5526 5528 5530 5532 5534 5537 5539 5541 5542 5544 5548 5551 5553 5553 5555 5558 5562 5565 5567 5568 5571 5574 5577 5579 5581 5582 5584 5586 5588 5590 5592 5594 5596 5597 5599 5600 5602 5603 5604 5606 5607 5609 5611 5613 5615 5617 5619 5621 5622 5624 5625 5627 5629 5630 5632 5633 5635
5443 5447 5451 5455 5459 5462 5466 5469 5473 5476 5479 5481 5484 5487 5490 5492 5494 5496 5498 5501 5503 5506 5508 5510 5512 5513 5514 5516 5519 5522 5524 5526 5528 5530 5533 5534 5536 5538 5541 5544 5547 5549 5549 5551 5554 5558 5561 5562 5564 5566 5569 5572 5574 5576 5578 5580 5582 5584 5586 5587 5589 5591 5592 5594 5595 5596 5598 5600 5601 5603 5605 5606 5608 5611 5612 5614 5616 5617 5619 5621 5622 5624 5625 5627 5628 5630
5441 5444 5448 5452 5455 5459 5462 5465 5469 5472 5475 5477 5479 5481 5485 5488 5490 5493 5495 5497 5499 5502 5505 5507 5509 5511 5513 5515 5517 5518 5520 5522 5524 5526 5528 5529 5531 5534 5537 5540 5543 5545 5546 5548 5551 5554 5557 5558 5560 5562 5565 5568 5570 5572 5574 5576 5578 5580 5581 5583 5584 5586 5587 5589 5590 5592 5593 5595 5596 5598 5600 5602 5604 5606 5608 5609 5611 5613 5614 5616 5617 5619 5621 5622 5624 5625
5438 5441 5445 5448 5452 5455 5458 5461 5464 5467 5471 5473 5475 5477 5480 5483 5485 5487 5490 5492 5495 5498 5501 5504 5506 5509 5511 5512 5513 5515 5516 5519 5521 5523 5524 5526 5528 5531 5533 5536 5538 5541 5543 5544 5547 5550 5553 5555 5556 5558 5561 5563 5565 5567 5570 5572 5573 5575 5576 5578 5580 5581 5582 5584 5586 5587 5589 5590 5592 5593 5595 5597 5599 5601 5603 5605 5606 5608 5610 5611 5612 5614 5616 5617 5619 5620
5436 5439 5442 5446 5449 5452 5455 5458 5461 5464 5467 5469 5471 5474 5476 5479 5481 5483 5485 5488 5491 5494 5497 5499 5502 5505 5506 5508 5510 5511 5513 5516 5518 5519 5520 5523 5526 5528 5529 5532 5535 5537 5539 5541 5543 5546 5550 5551 5553 5554 5557 5559 5561 5563 5566 5567 5569 5571 5572 5573 5575 5576 5578 5579 5581 5582 5584 5586 5587 5589 5591 5593 5595 5596 5598 5600 5602 5603 5605 5606 5608 5609 5611 5612 5614 5615
5433 5436 5439 5442 5446 5449 5451 5455 5458 5461 5463 5466 5468 5470 5472 5475 5477 5480 5482 5485 5488 5491 5492 5494 5496 5499 5502 5504 5506 5508 5510 5512 5514 5515 5517 5521 5523 5525 5526 5530 5532 5534 5535 5537 5539 5542 5546 5547 5549 5551 5553 5555 5557 5560 5561 5563 5565 5566 5567 5568 5570 5571 5573 5575 5576 5578 5580 5581 5583 5585 5586 5588 5590 5592 5594 5596 5597 5599 5600 5601 5603 5604 5606 5607 5609 5610
5430 5433 5436 5439 5442 5445 5448 5451 5454 5456 5459 5462 5464 5467 5469 5472 5474 5477 5479 5482 5485 5487 5488 5490 5492 5495 5497 5500 5502 5504 5506 5508 5510 5512 5515 5518 5520 5521 5524 5527 5529 5531 5532 5534 5536 5538 5541 5542 5545 5547 5550 5552 5554 5556 5557 5559 5560 5561 5562 5563 5565 5567 5569 5570 5572 5574 5575 5577 5579 5580 5582 5584 5586 5587 5589 5591 5593 5594 5595 5596 5598 5599 5601 5602 5604 5605
5427 5430 5433 5436 5438 5441 5444 5447 5450 5453 5455 5458 5461 5463 5466 5468 5471 5473 5476 5478 5481 5483 5485 5487 5489 5491 5494 5496 5498 5500 5502 5504 5507 5510 5513 5516 5517 5518 5521 5524 5526 5527 5529 5531 5533 5535 5536 5538 5541 5543 5546 5548 5550 5551 5552 5554 5555 5556 5557 5559 5560 5562 5564 5566 5568 5570 5571 5573 5574 5576 5578 5579 5581 5583 5585 5586 5588 5589 5591 5592 5593 5595 5596 5597 5599 5600
5425 5427 5430 5433 5436 5438 5441 5444 5446 5449 5452 5455 5457 5460 5462 5465 5467 5470 5472 5475 5477 5479 5482 5484 5486 5488 5491 5492 5495 5497 5499 5502 5504 5507 5510 5512 5514 5516 5518 5521 5522 5524 5526 5528 5530 5531 5532 5534 5536 5539 5542 5544 5546 5547 5549 5550 5551 5552 5553 5554 5556 5558 5560 5562 5564 5566 5567 5569 5570 5572 5573 5575 5576 5578 5580 5581 5583 5585 5586 5587 5588 5590 5591 5593 5594 5595
5421 5424 5427 5430 5433 5436 5438 5441 5444 5446 5449 5451 5454 5456 5459 5462 5464 5466 5469 5471 5474 5476 5478 5481 5483 5485 5487 5490 5492 5494 5496 5499 5501 5503 5506 5508 5510 5512 5515 5517 5519 5520 5522 5524 5526 5527 5529 5531 5533 5535 5538 5540 5542 5543 5545 5546 5547 5548 5549 5550 5551 5554 5556 5558 5561 5562 5563 5564 5566 5567 5569 5570 5572 5574 5575 5577 5579 5580 5581 5582 5584 5585 5586 5587 5588 5589
5419 5422 5425 5427 5430 5433 5436 5439 5441 5444 5446 5448 5451 5453 5456 5458 5461 5463 5466 5468 5470 5473 5475 5477 5480 5482 5484 5486 5489 5491 5493 5495 5497 5499 5502 5504 5506 5508 5511 5513 5515 5516 5518 5520 5521 5523 5525 5527 5529 5531 5533 5536 5537 5539 5541 5542 5543 5543 5544 5545 5547 5550 5552 5554 5556 5558 5559 5560 5562 5563 5565 5566 5567 5569 5571 5573 5574 5576 5577 5578 5579 5580 5581 5582 5583 5584
5416 5419 5422 5425 5427 5430 5433 5436 5438 5441 5443 5445 5448 5450 5453 5455 5458 5460 5462 5465 5467 5469 5472 5474 5476 5479 5481 5483 5486 5488 5490 5491 5494 5496 5499 5501 5502 5505 5507 5509 5511 5512 5515 5516 5518 5520 5522 5524 5526 5528 5530 5532 5533 5535 5536 5537 5538 5539 5539 5541 5543 5546 5548 5550 5552 5554 5555 5556 5558 5559 5561 5562 5563 5565 5567 5568 5570 5571 5572 5573 5575 5576 5576 5577 5578 5579
5414 5416 5419 5421 5424 5427 5430 5432 5435 5437 5440 5442 5445 5447 5450 5452 5455 5457 5459 5461 5464 5466 5468 5471 5473 5475 5477 5480 5482 5484 5486 5488 5491 5494 5496 5497 5499 5501 5503 5505 5506 5509 5511 5513 5514 5516 5518 5520 5522 5524 5526 5528 5530 5531 5533 5534 5535 5536 5536 5537 5539 5542 5544 5546 5547 5549 5551 5552 5553 5555 5556 5558 5560 5561 5563 5564 5566 5567 5568 5569 5570 5571 5571 5572 5573 5574
5411 5413 5416 5419 5421 5424 5426 5429 5432 5434 5437 5439 5441 5444 5446 5449 5451 5454 5456 5458 5461 5463 5465 5467 5470 5472 5474 5476 5479 5481 5483 5486 5488 5490 5492 5494 5496 5498 5500 5502 5503 5505 5507 5509 5510 5512 5515 5517 5518 5520 5522 5524 5526 5528 5530 5531 5533 5533 5534 5534 5536 5538 5540 5541 5543 5545 5546 5548 5549 5550 5552 5554 5556 5557 5559 5560 5561 5562 5564 5564 5565 5566 5567 5568 5569 5570
5408 5411 5413 5416 5418 5421 5423 5426 5428 5431 5433 5436 5438 5441 5443 5446 5448 5451 5453 5455 5457 5460 5462 5464 5466 5468 5471 5473 5476 5478 5480 5482 5484 5486 5488 5490 5492 5494 5496 5499 5500 5502 5504 5506 5507 5509 5511 5513 5514 5516 5517 5520 5522 5524 5526 5527 5529 5530 5530 5531 5533 5535 5537 5538 5539 5541 5542 5544 5545 5546 5548 5550 5551 5553 5555 5556 5557 5558 5559 5560 5561 5561 5562 5564 5565 5566
5405 5407 5410 5413 5415 5418 5420 5422 5425 5427 5430 5433 5436 5438 5441 5443 5445 5448 5450 5452 5454 5456 5459 5461 5463 5465 5467 5470 5472 5474 5476 5478 5481 5483 5485 5487 5489 5491 5493 5495 5496 5498 5500 5502 5504 5506 5507 5509 5510 5512 5514 5516 5518 5520 5521 5523 5525 5526 5527 5528 5530 5532 5533 5534 5535 5537 5539 5540 5541 5543 5544 5545 5547 5549 5550 5551 5552 5554 5555 5556 5556 5557 5559 5560 5561 5562
5402 5405 5407 5410 5412 5415 5417 5419 5421 5424 5427 5429 5432 5435 5437 5440 5442 5444 5446 5449 5451 5453 5456 5458 5460 5462 5464 5466 5469 5471 5473 5475 5477 5480 5481 5484 5486 5487 5489 5491 5492 5494 5496 5498 5500 5502 5504 5505 5506 5508 5510 5512 5514 5515 5517 5519 5520 5521 5523 5525 5526 5527 5529 5531 5532 5534 5535 5536 5538 5539 5540 5541 5543 5544 5546 5547 5548 5549 5551 5551 5552 5554 5555 5556 5557 5558
5399 5402 5404 5407 5409 5411 5414 5416 5419 5421 5423 5426 5429 5431 5433 5436 5438 5441 5443 5446 5448 5450 5452 5455 5457 5459 5461 5463 5466 5468 5470 5472 5474 5476 5478 5480 5482 5484 5486 5488 5489 5491 5493 5495 5497 5498 5500 5502 5503 5505 5506 5508 5510 5511 5513 5515 5516 5518 5520 5522 5523 5524 5526 5528 5529 5531 5532 5533 5534 5535 5536 5537 5539 5540 5541 5542 5544 5545 5546 5547 5549 5550 5551 5552 5553 5554
5397 5399 5401 5404 5406 5408 5411 5413 5416 5418 5420 5422 5425 5427 5429 5432 5435 5437 5440 5442 5444 5446 5449 5451 5453 5456 5458 5461 5462 5465 5467 5469 5471 5473 5475 5477 5479 5481 5483 5484 5486 5488 5490 5492 5494 5495 5496 5498 5500 5502 5503 5505 5507 5508 5509 5511 5513 5515 5517 5518 5520 5521 5523 5524 5525 5526 5528 5529 5530 5531 5532 5533 5535 5536 5537 5538 5540 5541 5542 5543 5545 5546 5547 5548 5549 5550
5394 5396 5399 5401 5404 5406 5409 5411 5413 5415 5417 5419 5421 5424 5426 5429 5431 5434 5436 5439 5441 5443 5446 5448 5451 5453 5455 5457 5460 5462 5464 5466 5468 5470 5472 5474 5476 5478 5480 5481 5483 5485 5487 5488 5490 5492 5493 5496 5497 5498 5500 5502 5504 5505 5506 5508 5510 5512 5513 5515 5516 5518 5519 5520 5521 5523 5524 5525 5526 5527 5528 5529 5531 5532 5533 5535 5536 5537 5538 5540 5541 5542 5543 5544 5545 5546
5392 5394 5396 5399 5401 5404 5406 5408 5410 5412 5415 5417 5419 5421 5424 5426 5428 5431 5433 5436 5438 5441 5443 5445 5447 5450 5452 5454 5456 5459 5461 5463 5465 5467 5469 5471 5473 5475 5476 5478 5480 5481 5483 5485 5486 5488 5490 5492 5494 5495 5496 5499 5501 5502 5503 5505 5506 5508 5510 5511 5512 5514 5515 5516 5518 5519 5521 5521 5522 5523 5524 5526 5527 5528 5530 5531 5532 5534 5535 5536 5537 5538 5539 5540 5541 5542
5390 5392 5394 5396 5398 5401 5403 5405 5407 5410 5412 5414 5416 5419 5421 5423 5426 5428 5430 5433 5435 5437 5440 5442 5444 5446 5448 5450 5452 5455 5458 5460 5462 5464 5466 5467 5469 5471 5473 5475 5476 5478 5480 5481 5483 5485 5486 5488 5490 5492 5494 5496 5497 5498 5500 5501 5503 5505 5506 5507 5509 5510 5511 5513 5514 5515 5516 5517 5518 5519 5521 5522 5523 5525 5526 5527 5529 5530 5531 5532 5533 5534 5535 5536 5536 5537
5387 5389 5391 5394 5396 5398 5400 5402 5405 5407 5409 5411 5414 5416 5418 5421 5423 5425 5427 5430 5432 5434 5436 5439 5441 5443 5444 5447 5449 5452 5454 5456 5458 5461 5463 5464 5466 5468 5470 5471 5473 5475 5476 5478 5479 5481 5483 5485 5486 5488 5490 5492 5493 5494 5496 5498 5500 5501 5502 5503 5505 5507 5508 5509 5510 5511 5512 5514 5515 5516 5517 5519 5520 5521 5523 5524 5525 5526 5527 5528 5529 5530 5530 5531 5532 5533
5385 5387 5389 5391 5393 5396 5398 5400 5402 5404 5406 5409 5411 5413 5416 5418 5420 5422 5425 5427 5429 5431 5434 5436 5438 5440 5441 5444 5446 5449 5451 5453 5455 5457 5459 5461 5463 5465 5466 5468 5469 5471 5473 5474 5476 5477 5479 5481 5483 5484 5486 5488 5489 5491 5492 5494 5496 5497 5498 5500 5501 5503 5504 5506 5506 5508 5509 5511 5511 5512 5514 5515 5517 5518 5519 5520 5521 5523 5523 5524 5525 5526 5526 5527 5528 5529
5382 5384 5386 5389 5391 5393 5395 5397 5399 5402 5404 5406 5408 5411 5413 5415 5417 5420 5422 5424 5426 5429 5431 5433 5435 5436 5439 5441 5443 5446 5448 5450 5452 5454 5456 5458 5459 5461 5463 5464 5466 5467 5469 5471 5472 5474 5476 5477 5479 5481 5482 5484 5486 5487 5489 5491 5492 5493 5495 5496 5498 5499 5501 5502 5503 5505 5506 5507 5508 5509 5511 5512 5513 5514 5516 5517 5518 5518 5519 5520 5521 5521 5522 5523 5524 5525
5379 5381 5384 5386 5388 5391 5392 5395 5397 5399 5401 5403 5406 5408 5410 5412 5415 5416 5419 5421 5424 5426 5428 5430 5432 5434 5436 5438 5440 5442 5445 5446 5448 5450 5452 5454 5456 5457 5459 5461 5463 5464 5466 5467 5469 5471 5472 5474 5476 5477 5479 5481 5482 5484 5485 5487 5488 5490 5491 5492 5494 5496 5497 5498 5500 5501 5503 5504 5505 5506 5507 5508 5509 5511 5512 5513 5513 5514 5515 5516 5517 5517 5518 5519 5520 5521
5376 5378 5381 5383 5386 5388 5390 5392 5394 5396 5399 5401 5403 5405 5407 5410 5412 5414 5416 5419 5421 5423 5425 5427 5429 5431 5433 5435 5437 5440 5441 5443 5445 5447 5449 5451 5452 5454 5456 5457 5459 5461 5462 5464 5466 5467 5469 5471 5472 5474 5476 5477 5479 5480 5481 5483 5485 5486 5488 5489 5491 5492 5494 5495 5496 5498 5499 5501 5501 5503 5504 5505 5506 5507 5508 5509 5509 5510 5511 5512 5513 5513 5514 5515 5516 5517